Whidbey Island, WA
on Monday, January 14, 2013

Monday
Previous Day Next Day
Daily Summary
 ActualAverageRecord
Temperature
Mean Temperature °F °F  
Max Temperature 36°F 44°F 55°F (2004)
Min Temperature 33°F 35°F 19°F (2007)
Degree Days
Heating Degree Days 30    
Moisture
Dew Point 30°F   
Average Humidity 82    
Maximum Humidity 89    
Minimum Humidity 78    
Precipitation
Precipitation 0.00 in in in ()
Wind
Wind Speed 6 mph   
Max Wind Speed 10 mph   
Max Gust Speed mph   
Visibility 9 miles   
Events Rain   
Averages and records for this station are not official NWS values.
Key: T is trace of precipitation, MM is missing value
Source: NWS Daily Summary
Seasonal Weather Averages
Time(PST)TemperatureDew PointHumidity Pressure Visibility Wind DirectionWind SpeedGust SpeedPrecipitationEvents Conditions
12:56 AM 33.1°F 27.0°F 78% 30.50 in 10.0 miles East 5.8 mph - N/A   Overcast
1:56 AM 33.1°F 27.0°F 78% 30.50 in 10.0 miles ESE 5.8 mph - N/A   Overcast
2:56 AM 33.1°F 27.0°F 78% 30.51 in 10.0 miles ESE 4.6 mph - N/A   Overcast
3:56 AM 33.1°F 27.0°F 78% 30.50 in 10.0 miles ESE 4.6 mph - N/A   Overcast
4:56 AM 33.1°F 28.0°F 82% 30.49 in 10.0 miles East 4.6 mph - N/A   Overcast
5:56 AM 34.0°F 28.0°F 79% 30.50 in 10.0 miles East 4.6 mph - N/A   Overcast
6:08 AM 33.8°F 28.4°F 81% 30.49 in 7.0 miles East 5.8 mph - 0.00 in Rain Light Rain
6:56 AM 33.1°F 28.9°F 85% 30.50 in 8.0 miles ESE 5.8 mph - 0.00 in Rain Light Rain
7:56 AM 34.0°F 30.0°F 85% 30.51 in 6.0 miles ESE 4.6 mph - 0.00 in Rain Light Rain
8:38 AM 33.8°F 30.2°F 87% 30.49 in 8.0 miles East 6.9 mph - 0.00 in   Overcast
8:56 AM 34.0°F 30.0°F 85% 30.51 in 8.0 miles East 8.1 mph - 0.00 in   Overcast
9:07 AM 33.8°F 30.2°F 87% 30.50 in 8.0 miles ESE 6.9 mph - N/A   Overcast
9:56 AM 35.1°F 30.0°F 82% 30.51 in 8.0 miles East 8.1 mph - N/A   Overcast
10:56 AM 36.0°F 30.0°F 79% 30.51 in 8.0 miles ESE 10.4 mph - N/A   Overcast
11:43 AM 35.6°F 30.2°F 81% 30.51 in 8.0 miles ESE 9.2 mph - N/A   Overcast
11:56 AM 35.1°F 30.0°F 82% 30.52 in 8.0 miles ESE 9.2 mph - N/A   Overcast
12:12 PM 35.6°F 30.2°F 81% 30.50 in 8.0 miles ESE 8.1 mph - N/A   Overcast
12:56 PM 35.1°F 32.0°F 89% 30.51 in 6.0 miles ESE 8.1 mph - N/A   Overcast
1:56 PM 35.1°F 30.9°F 85% 30.52 in 7.0 miles ESE 8.1 mph - N/A   Overcast
2:56 PM 36.0°F 30.9°F 82% 30.53 in 10.0 miles ESE 9.2 mph - N/A   Overcast
3:28 PM 35.6°F 30.2°F 81% 30.51 in 10.0 miles ESE 9.2 mph - 0.00 in Rain Light Rain
3:56 PM 36.0°F 30.9°F 82% 30.53 in 10.0 miles ESE 9.2 mph - 0.00 in   Overcast
4:56 PM 35.1°F 30.0°F 82% 30.54 in 10.0 miles East 6.9 mph - N/A   Overcast
5:56 PM 35.1°F 30.0°F 82% 30.54 in 8.0 miles East 8.1 mph - N/A   Overcast
6:56 PM 35.1°F 30.0°F 82% 30.56 in 8.0 miles East 8.1 mph - N/A   Overcast
7:56 PM 35.1°F 30.0°F 82% 30.57 in 10.0 miles East 8.1 mph - N/A   Overcast
8:56 PM 35.1°F 30.0°F 82% 30.58 in 10.0 miles East 5.8 mph - N/A   Overcast
9:56 PM 35.1°F 30.0°F 82% 30.58 in 10.0 miles East 5.8 mph - N/A   Overcast
10:56 PM 35.1°F 30.0°F 82% 30.59 in 10.0 miles ESE 3.5 mph - N/A   Overcast
11:56 PM 34.0°F 30.0°F 85% 30.60 in 10.0 miles SE 4.6 mph - N/A   Overcast
Moon Phase
Jan. 14 Jan. 18 Jan. 26 Feb. 03 Feb. 10
Sunrise:07:57 AM (PST) Moon Rise:09:14 AM (PST)1/14
Sunset:04:42 PM (PST) Moon Set:08:56 PM (PST)1/14

Copyright © 2014 The Weather Underground, Inc.